Regional Weather Roundup
Issued by NWS

Home | Current Version | Previous Version | Text Only | Print | Product List | Glossary On
Versions: 1 2 3 4 5 6 7 8 9 10 11 12 13 14 15 16 17 18 19 20 21 22 23 24 25 26 27 28 29 30 31 32 33 34 35 36 37 38 39 40 41 42 43 44 45 46 47 48 49 50
884
ASUS43 KMPX 240401
RWRMN
WEATHER ROUNDUP FOR MINNESOTA
NATIONAL WEATHER SERVICE TWIN CITIES/CHANHASSEN MN
1100 PM CDT TUE MAY 23 2017


NOTE: "FAIR" INDICATES FEW OR NO CLOUDS BELOW 12,000 FEET WITH NO
SIGNIFICANT WEATHER AND/OR OBSTRUCTIONS TO VISIBILITY. N/A MEANS
CURRENT SKY AND/OR WEATHER CONDITIONS ARE NOT AVAILABLE.

MNZ060>063-068>070-240500-
   Twin Cities Metro

CITY           SKY/WX    TMP DP  RH WIND       PRES   REMARKS
TWIN CITIES    MOCLDY    55  44  66 NE10      29.82S
ST PAUL        CLOUDY    54  45  71 N8        29.83S
CRYSTAL        PTCLDY    52  43  71 N9        29.83R
BLAINE         PTCLDY    54  46  76 N13       29.84S
LAKEVILLE      CLOUDY    54  46  76 N6        29.81F
EDEN PRAIRIE   PTCLDY    55  44  66 N8        29.81S
SOUTH ST PAUL  MOCLDY    55  43  64 N8        29.82S
LAKE ELMO      FAIR      52  45  76 N6        29.83F
$$
MNZ001>005-007-008-013>017-022>024-027-028-240500-
   Northwest Minnesota

CITY           SKY/WX    TMP DP  RH WIND       PRES   REMARKS
BEMIDJI        CLEAR     38  38  99 NW3       29.93S
HALLOCK        CLEAR     48  39  71 S5        29.93F
ROSEAU         CLEAR     48  41  76 CALM      29.93F
WARROAD        CLEAR     45  43  93 CALM      29.94S
CROOKSTON      CLEAR     46  43  87 CALM      29.95F
FOSSTON        CLEAR     41  39  93 CALM      29.95S
DETROIT LAKES  CLOUDY    50  43  76 NE7       29.93S
MOORHEAD       CLEAR     48  43  81 NE7       29.94S
PARK RAPIDS    CLOUDY    52  41  66 N8        29.91S
MAHNOMEN       FAIR      44  41  89 NE5       29.94S
$$
MNZ006-009>011-018-025>026-240500-
   North Central Minnesota

CITY           SKY/WX    TMP DP  RH WIND       PRES   REMARKS
BAUDETTE       CLEAR     43  41  93 CALM      29.93F
FLAG ISLAND    CLEAR     54  43  66 SW3       29.92S
INTL FALLS     CLEAR     38  37  97 CALM      29.92F
WASKISH        CLEAR     43  39  87 CALM      29.93F
BIG FORK       CLEAR     39  37  93 CALM      29.92S
LONGVILLE      CLOUDY    50  45  81 CALM      29.90F
GRAND RAPIDS   CLOUDY    49  44  83 N3        29.92S
CRANE LAKE     PTCLDY    41  41 100 CALM      29.93F
ORR            MOCLDY    45  39  81 CALM      29.90S
COOK           PTCLDY    46  43  87 CALM      29.91S
WALKER         CLOUDY    48  42  80 N5        29.92S
$$
MNZ012-019>021-037-240500-
   Northeast Minnesota

CITY           SKY/WX    TMP DP  RH WIND       PRES   REMARKS
DULUTH         CLOUDY    48  45  89 NE6       29.88F
ELY            CLOUDY    48  39  71 CALM      29.90S
HIBBING        CLOUDY    49  43  80 N3        29.89F
EVELETH        CLOUDY    53  42  67 N6        29.90F
DULUTH HARBOR  CLOUDY    46  45  93 NE7       29.90F
TWO HARBORS    CLOUDY    50  45  81 CALM      29.88F
SILVER BAY     DRIZZLE   48  46  93 CALM      29.88F
GRAND MARAIS     N/A     46  43  89 CALM      29.89S
G MARAIS ARPRT PTCLDY    43  36  75 N6        29.90S
$$
MNZ029>031-032-039>041-046>048-054>057-064-240500-
   West Central Minnesota

CITY           SKY/WX    TMP DP  RH WIND       PRES   REMARKS
FERGUS FALLS   CLEAR     46  43  87 N3        29.91S
WHEATON        CLEAR     46  43  87 NW3       29.93S
MORRIS         CLEAR     48  46  93 N7        29.89S
ALEXANDRIA     CLEAR     48  46  93 N6        29.90S
ELBOW LAKE     FAIR      47  44  90 N5        29.91S
WADENA         CLOUDY    48  45  87 N3        29.90S
GLENWOOD       CLEAR     48  46  93 N9        29.89S
APPLETON       PTCLDY    50  45  81 N6        29.89S
BENSON         CLEAR     48  45  87 NE6       29.90S
ORTONVILLE     CLEAR     48  45  87 N8        29.91R
MADISON        MOCLDY    54  48  82 N7        29.90R
WILLMAR        CLOUDY    54  46  76 NE8       29.88S
$$
MNZ033>034-036-042>043-049>051-058-059-240500-
   Central Minnesota

CITY           SKY/WX    TMP DP  RH WIND       PRES   REMARKS
ST CLOUD       CLOUDY    53  46  77 N6        29.87R
SAUK CENTRE    CLOUDY    50  46  84 N9        29.89S
PAYNESVILLE    CLOUDY    51  47  84 N5        29.88S
AITKIN         RAIN      48  46  93 E3        29.89R
PINE RIVER     CLOUDY    50  45  81 N6        29.93F
BRAINERD       CLOUDY    50  48  93 N5        29.90R
STAPLES        CLOUDY    48  43  81 N7        29.90S
LONG PRAIRIE   CLOUDY    48  45  87 NW6       29.90S
LITTLE FALLS   CLOUDY    50  45  81 CALM      29.89S
LITCHFIELD     MOCLDY    54  48  82 N6          N/A
BUFFALO        CLEAR     51  44  76 N7        29.85S
MAPLE LAKE     PTCLDY    51  46  83 N6        29.86S
HUTCHINSON     CLEAR     52  46  80 N7        29.86S
$$
MNZ037-044-045-052-053-240500-
   East Central Minnesota

CITY           SKY/WX    TMP DP  RH WIND       PRES   REMARKS
PRINCETON      CLOUDY    54  45  71 N8        29.86S
MORA           CLEAR     46  41  81 NE5       29.89S
CAMBRIDGE      PTCLDY    52  43  71 N5        29.85R
RUSH CITY      CLOUDY    49  44  84 NE6       29.86S
MOOSE LAKE     CLOUDY    46  43  87 NE7       29.87F
HINCKLEY       CLOUDY    46  45  93 NE7       29.88S
CLOQUET        CLOUDY    48  43  81 CALM      29.89S
MCGREGOR       CLOUDY    48  46  93 CALM      29.90S
$$
MNZ071>073-080-081-089-090-097-098-240500-
   Southwest Minnesota

CITY           SKY/WX    TMP DP  RH WIND       PRES   REMARKS
MONTEVIDEO     MOCLDY    52  46  82 NE10      29.88S
CANBY          CLOUDY    51  48  89 CALM      29.90S
MARSHALL       CLOUDY    51  48  89 N10       29.88R
REDWOOD FALLS  CLOUDY    53  45  74 N7        29.85S
OLIVIA         CLOUDY    52  45  76 N10       29.86R
PIPESTONE      MOCLDY    50  43  76 N7        29.87F
WINDOM         CLEAR     48  46  93 NW8       29.85S
WORTHINGTON    MOCLDY    47  45  93 N7        29.86S
JACKSON        PTCLDY    48  45  87 N9        29.84S
TRACY          CLOUDY    52  49  90 NW8       29.87S
SLAYTON        PTCLDY    47  44  88 NW10      29.88R
$$
MNZ065>067-074>077-082>085-091>093-240500-
   South Central Minnesota

CITY           SKY/WX    TMP DP  RH WIND       PRES   REMARKS
MANKATO        CLOUDY    52  48  86 N8        29.82S
NEW ULM        PTCLDY    52  45  76 N5        29.83S
ST JAMES       CLOUDY    52  46  82 N12       29.84S
FAIRMONT       CLOUDY    51  48  89 NW9       29.82F
GLENCOE        CLEAR     52  49  89 N5        29.83S
FARIBAULT      CLOUDY    54  48  82 N6        29.80F
OWATONNA       CLOUDY    52  46  82 N9        29.80S
WASECA         CLOUDY    52  46  82 N14       29.81S
ALBERT LEA     LGT RAIN  52  52 100 N3        29.78S
$$
MNZ078>079-086>088-094>096-240500-
   Southeast Minnesota

CITY           SKY/WX    TMP DP  RH WIND       PRES   REMARKS
ROCHESTER      CLOUDY    50  49  96 N12       29.78S
RED WING       CLOUDY    55  45  67 NE8       29.78F
STANTON        CLOUDY    54  49  83 N10       29.79S
DODGE CENTER   CLOUDY    50  48  93 N8        29.78F
WINONA         CLOUDY    54  46  76 NE3       29.77S
AUSTIN         CLOUDY    52  46  82 N8        29.76F
PRESTON        CLOUDY    50  47  89 N8        29.75S
$$
ABBREVIATIONS USED IN REMARKS
   TC - TEMPERATURES IN CELSIUS
  WCI - WIND CHILL INDEX
   HX - HEAT INDEX
  VSB - VISIBILITY
$$




USA.gov is the U.S. government's official web portal to all federal, state and local government web resources and services.